[TLELIST] Archives

 

[list_settings.list_name] Current TLEs

September 18th 2012 PDT

HST 1 20580U 90037B 12262.17527974 .00001176 00000-0 73378-4 0 728 2 20580 028.4695 254.9089 0002999 327.8764 032.1582 15.02785612 28732 ISS (ZARYA) 1 25544U 98067A 12262.32597248 .00013689 00000-0 24680-3 0 3234 2 25544 051.6485 018.3291 0018454 074.2714 324.6543 15.49907729792493 CXO 1 25867U 99040B 12264.15326921 .00000077 00000-0 00000+0 0 7928 2 25867 073.3645 357.8084 8734691 278.1233 000.6730 00.37806832 9515 ____________________________________________________________________ These 2-Line ...Continue Reading

[list_settings.list_name] Current TLEs

September 17th 2012 PDT

HST 1 20580U 90037B 12260.18290885 .00001293 00000-0 81927-4 0 713 2 20580 028.4697 267.9519 0003026 302.5522 057.4778 15.02781986 28434 ISS (ZARYA) 1 25544U 98067A 12261.23581397 .00009117 00000-0 16717-3 0 3177 2 25544 051.6554 023.7371 0018452 068.9186 003.3134 15.49914348792324 CXO 1 25867U 99040B 12261.50893615 +.00000207 +00000-0 +00000-0 0 00012 2 25867 073.3379 358.0395 8732027 278.0987 000.8031 00.37805847015038 ____________________________________________________________________ These 2-Line ...Continue Reading

[list_settings.list_name] Current TLEs

September 16th 2012 PDT

HST 1 20580U 90037B 12260.18290885 .00001293 00000-0 81927-4 0 713 2 20580 028.4697 267.9519 0003026 302.5522 057.4778 15.02781986 28434 ISS (ZARYA) 1 25544U 98067A 12260.46302881 .00009470 00000-0 17377-3 0 3119 2 25544 051.6490 027.5578 0018222 068.1316 009.4953 15.49846341792206 CXO 1 25867U 99040B 12258.86299849 +.00000355 +00000-0 +00000-0 0 00010 2 25867 073.3146 358.2201 8729212 278.1170 000.5900 00.37800501015028 ____________________________________________________________________ These 2-Line ...Continue Reading

[list_settings.list_name] Current TLEs

September 15th 2012 PDT

HST 1 20580U 90037B 12258.19053163 .00001313 00000-0 83446-4 0 707 2 20580 028.4703 280.9944 0003057 280.0368 079.9810 15.02777636 28131 ISS (ZARYA) 1 25544U 98067A 12259.43614234 .00006189 00000-0 11655-3 0 3041 2 25544 051.6481 032.6445 0018230 063.6265 040.7929 15.49822063792046 CXO 1 25867U 99040B 12261.50934402 .00000207 00000-0 00000+0 0 7917 2 25867 073.3379 358.0394 8732040 278.0986 000.8585 00.37805356 9505 ____________________________________________________________________ These 2-Line ...Continue Reading

[list_settings.list_name] Current TLEs

September 14th 2012 PDT

HST 1 20580U 90037B 12258.19053163 .00001313 00000-0 83446-4 0 707 2 20580 028.4703 280.9944 0003057 280.0368 079.9810 15.02777636 28131 ISS (ZARYA) 1 25544U 98067A 12258.46956245 -.00178691 00000-0 -32002-2 0 2973 2 25544 051.6458 037.4285 0018000 061.1011 046.8764 15.49741017791897 CXO 1 25867U 99040B 12258.86434324 +.00000355 +00000-0 +00000-0 0 00019 2 25867 073.3146 358.2200 8729212 278.1170 000.7729 00.37800549015020 ____________________________________________________________________ These 2-Line ...Continue Reading

[list_settings.list_name] Current TLEs

September 13th 2012 PDT

HST 1 20580U 90037B 12257.19433996 .00001792 00000-0 11840-3 0 699 2 20580 028.4704 287.5150 0003044 270.3566 089.6521 15.02776566 27982 ISS (ZARYA) 1 25544U 98067A 12257.37278368 .00001056 00000-0 26131-4 0 2892 2 25544 051.6458 042.8663 0015596 064.6776 037.9251 15.50556843791727 CXO 1 25867U 99040B 12256.24959199 .00000000 00000-0 10000-3 0 7884 2 25867 073.2865 358.3269 8729622 278.1680 004.6687 00.37810289 9586 ____________________________________________________________________ These 2-Line ...Continue Reading

[list_settings.list_name] Current TLEs

September 12th 2012 PDT

HST 1 20580U 90037B 12256.19814940 .00001885 00000-0 12519-3 0 686 2 20580 028.4707 294.0351 0003229 260.1070 099.9093 15.02775314 27835 ISS (ZARYA) 1 25544U 98067A 12256.19105324 .00012122 00000-0 21496-3 0 2830 2 25544 051.6473 048.7209 0015696 061.9003 279.9508 15.50556537791531 CXO 1 25867U 99040B 12256.22038302 .00000287 00000-0 00000+0 0 7899 2 25867 073.2841 358.3982 8730844 278.1440 000.7797 00.37801622 9483 ____________________________________________________________________ These 2-Line ...Continue Reading

[list_settings.list_name] Current TLEs

September 11th 2012 PDT

HST 1 20580U 90037B 12255.20195658 .00002116 00000-0 14207-3 0 678 2 20580 028.4707 300.5575 0003281 250.5527 109.4588 15.02772947 27682 ISS (ZARYA) 1 25544U 98067A 12255.42882443 .00013101 00000-0 23176-3 0 2788 2 25544 051.6473 052.4990 0015686 059.2517 345.0669 15.50541881791426 CXO 1 25867U 99040B 12256.22038302 .00000287 00000-0 00000+0 0 7899 2 25867 073.2841 358.3982 8730844 278.1440 000.7797 00.37801622 9483 ____________________________________________________________________ These 2-Line ...Continue Reading

[list_settings.list_name] Current TLEs

September 10th 2012 PDT

HST 1 20580U 90037B 12250.61945086 +.00002970 +00000-0 +20448-3 0 00656 2 20580 028.4710 330.5555 0003584 202.3050 157.7335 15.02755706026992 ISS (ZARYA) 1 25544U 98067A 12252.93488678 +.00014780 +00000-0 +26097-3 0 02669 2 25544 051.6467 064.8635 0015615 050.3777 104.0148 15.50478392791032 CXO 1 25867U 99040B 12256.22038302 .00000287 00000-0 00000+0 0 7899 2 25867 073.2841 358.3982 8730844 278.1440 000.7797 00.37801622 9483 ____________________________________________________________________ These 2-Line ...Continue Reading

[list_settings.list_name] Current TLEs

September 9th 2012 PDT

HST 1 20580U 90037B 12250.61945086 +.00002970 +00000-0 +20448-3 0 00656 2 20580 028.4710 330.5555 0003584 202.3050 157.7335 15.02755706026992 ISS (ZARYA) 1 25544U 98067A 12251.90027752 +.00015518 +00000-0 +27385-3 0 02624 2 25544 051.6466 069.9933 0015642 046.4187 089.3203 15.50449613790871 CXO 1 25867U 99040B 12253.57622202 +.00000069 +00000-0 +00000-0 0 00018 2 25867 073.2493 358.6309 8732271 278.1406 000.7787 00.37802229015008 ____________________________________________________________________ These 2-Line ...Continue Reading
  • This mailing list is a public mailing list - anyone may join or leave, at any time.
  • This mailing list is announce-only.

International Space Station (ISS) / Hubble Space Telescope (HST) / Chandra X-Ray Observatory Orbital Data via EMAIL

Privacy Policy:

Private list